This is the latest recevied weather packets stored in our database for station/object KQ4OSL. If no packets are shown the sender has not sent any weather packets the latest 10 day(s).
| Time | Temp. | Humidity | Pressure | Rain* | Wind** | Luminosity | Snow |
|---|---|---|---|---|---|---|---|
| 1778011153 | 24.44° C | 45% | 1016 hPa | 0 mm | - | 542 W/m² | - |
| 1778010851 | 24.44° C | 43% | 1015.9 hPa | 0 mm | - | 571 W/m² | - |
| 1778010548 | 24.44° C | 44% | 1015.8 hPa | 0 mm | - | 579 W/m² | - |
| 1778010246 | 24.44° C | 45% | 1016.1 hPa | 0 mm | - | 549 W/m² | - |
| 1778009946 | 25° C | 46% | 1016.1 hPa | 0 mm | - | 592 W/m² | - |
| 1778009644 | 25° C | 46% | 1016 hPa | 0 mm | - | 610 W/m² | - |
| 1778009341 | 24.44° C | 49% | 1016 hPa | 0 mm | - | 620 W/m² | - |
| 1778009039 | 25° C | 45% | 1016.2 hPa | 0 mm | - | 621 W/m² | - |
| 1778008736 | 24.44° C | 45% | 1016.1 hPa | 0 mm | - | 631 W/m² | - |
| 1778008435 | 24.44° C | 45% | 1016.2 hPa | 0 mm | - | 621 W/m² | - |
| 1778008131 | 23.89° C | 47% | 1016.3 hPa | 0 mm | - | 601 W/m² | - |
| 1778007827 | 23.89° C | 47% | 1016.4 hPa | 0 mm | - | 655 W/m² | - |
| 1778007522 | 23.89° C | 49% | 1016.1 hPa | 0 mm | - | 671 W/m² | - |
| 1778007219 | 24.44° C | 47% | 1016.2 hPa | 0 mm | - | 684 W/m² | - |
| 1778006916 | 23.89° C | 50% | 1016.5 hPa | 0 mm | - | 672 W/m² | - |
| 1778006613 | 23.89° C | 51% | 1016.6 hPa | 0 mm | - | 699 W/m² | - |
| 1778006310 | 23.89° C | 48% | 1016.5 hPa | 0 mm | - | 529 W/m² | - |
| 1778006006 | 23.89° C | 47% | 1016.5 hPa | 0 mm | - | 663 W/m² | - |
| 1778005703 | 23.33° C | 48% | 1016.9 hPa | 0 mm | - | 718 W/m² | - |
| 1778005400 | 23.33° C | 49% | 1016.8 hPa | 0 mm | - | 646 W/m² | - |
| 1778005097 | 23.33° C | 48% | 1016.8 hPa | 0 mm | - | 738 W/m² | - |
| 1778004794 | 23.33° C | 47% | 1017.1 hPa | 0 mm | - | 682 W/m² | - |
| 1778004491 | 23.89° C | 46% | 1017.1 hPa | 0 mm | - | 618 W/m² | - |
| 1778004187 | 23.33° C | 47% | 1017.2 hPa | 0 mm | - | 695 W/m² | - |
| 1778003884 | 23.33° C | 50% | 1017.2 hPa | 0 mm | - | 705 W/m² | - |
* Rain latest hour (hover to see other rain measurements)
** Current wind speed in m/s (hover to see current wind gust speed)